Location: Gad�tanya
(48.0500°N, 20.8500°E)
Time: 11:09:04
(UTC+00:00)

SPOT 5 - Pass Details

Date: 05 July 2020
Orbit: 622 x 815 km, 98.3° (Epoch: 15 August)

Event Time Altitude Azimuth Distance (km) Brightness Sun altitude
Exits shadow 19:34:41 10° 140° (SE) 2,321 4.8 -7.8°
Reaches altitude 10° 19:34:46 10° 139° (SE) 2,289 4.8 -7.9°
Maximum altitude 19:39:32 44° 69° (ENE) 1,013 3.5 -8.4°
Drops below altitude 10° 19:44:05 10° 358° (N) 2,187 6.2 -8.9°
Sets 19:46:21 0° 352° (N) 3,079 7.2 -9.1°
